Stündliche Wetter Holopovo

Heute, 21 Juni, Montag

Zeit Temperatur Niederschläge Wind Luftdruck Luftfeuchtigkeit
00:00 +20°C° 0.1 mm 2 m/S 745 mmHg 91%
01:00 +20°C° 0.1 mm 2 m/S 746 mmHg 92%
02:00 +20°C° 0 mm 2 m/S 746 mmHg 93%
03:00 +21°C° 0 mm 1 m/S 746 mmHg 93%
04:00 +21°C° 0 mm 1 m/S 746 mmHg 92%
05:00 +22°C° 0 mm 1 m/S 746 mmHg 91%
06:00 +23°C° 0 mm 1 m/S 746 mmHg 84%
07:00 +25°C° 0 mm 1 m/S 746 mmHg 77%
08:00 +26°C° 0 mm 2 m/S 746 mmHg 70%
09:00 +27°C° 0 mm 2 m/S 746 mmHg 64%
10:00 +28°C° 0 mm 2 m/S 746 mmHg 58%
11:00 +30°C° 0 mm 2 m/S 746 mmHg 52%
12:00 +30°C° 0 mm 2 m/S 746 mmHg 49%
13:00 +31°C° 0 mm 3 m/S 746 mmHg 46%
14:00 +31°C° 0 mm 3 m/S 746 mmHg 42%
15:00 +31°C° 0 mm 3 m/S 745 mmHg 45%
16:00 +30°C° 0 mm 3 m/S 745 mmHg 47%
17:00 +30°C° 0 mm 2 m/S 745 mmHg 50%
18:00 +28°C° 0 mm 2 m/S 745 mmHg 59%
19:00 +25°C° 0 mm 2 m/S 745 mmHg 69%
20:00 +23°C° 0 mm 2 m/S 745 mmHg 79%
21:00 +21°C° 0 mm 2 m/S 745 mmHg 81%
22:00 +21°C° 0 mm 2 m/S 745 mmHg 83%
23:00 +20°C° 0 mm 2 m/S 745 mmHg 85%

Morgen, 22 Juni, Dienstag

Zeit Temperatur Niederschläge Wind Luftdruck Luftfeuchtigkeit
00:00 +19°C° 0 mm 2 m/S 745 mmHg 88%
01:00 +19°C° 0 mm 2 m/S 745 mmHg 90%
02:00 +18°C° 0 mm 2 m/S 745 mmHg 93%
03:00 +20°C° 0 mm 1 m/S 745 mmHg 92%
04:00 +21°C° 0 mm 1 m/S 745 mmHg 90%
05:00 +22°C° 0 mm 1 m/S 746 mmHg 88%
06:00 +24°C° 0 mm 2 m/S 746 mmHg 80%
07:00 +25°C° 0 mm 2 m/S 746 mmHg 72%
08:00 +27°C° 0 mm 3 m/S 746 mmHg 64%
09:00 +29°C° 0 mm 3 m/S 746 mmHg 57%
10:00 +30°C° 0 mm 3 m/S 746 mmHg 49%
11:00 +32°C° 0 mm 4 m/S 746 mmHg 42%
12:00 +33°C° 0 mm 4 m/S 746 mmHg 40%
13:00 +33°C° 0 mm 4 m/S 745 mmHg 38%
14:00 +34°C° 0 mm 4 m/S 745 mmHg 35%
15:00 +33°C° 0 mm 4 m/S 745 mmHg 39%
16:00 +33°C° 0 mm 3 m/S 745 mmHg 43%
17:00 +31°C° 0 mm 3 m/S 745 mmHg 46%
18:00 +29°C° 0 mm 3 m/S 745 mmHg 57%
19:00 +27°C° 0 mm 2 m/S 745 mmHg 67%
20:00 +25°C° 0 mm 2 m/S 745 mmHg 77%
21:00 +24°C° 0 mm 2 m/S 745 mmHg 80%
22:00 +23°C° 0 mm 2 m/S 745 mmHg 83%
23:00 +21°C° 0 mm 2 m/S 745 mmHg 86%

übermorgen, 23 Juni, Mittwoch

Zeit Temperatur Niederschläge Wind Luftdruck Luftfeuchtigkeit
00:00 +21°C° 0 mm 2 m/S 745 mmHg 89%
01:00 +20°C° 0 mm 2 m/S 745 mmHg 91%
02:00 +20°C° 0 mm 2 m/S 746 mmHg 94%
03:00 +20°C° 0 mm 2 m/S 746 mmHg 91%
04:00 +22°C° 0 mm 1 m/S 746 mmHg 89%
05:00 +23°C° 0 mm 1 m/S 746 mmHg 87%
06:00 +25°C° 0 mm 2 m/S 746 mmHg 79%
07:00 +27°C° 0 mm 2 m/S 746 mmHg 71%
08:00 +29°C° 0 mm 2 m/S 746 mmHg 63%
09:00 +30°C° 0 mm 3 m/S 746 mmHg 55%
10:00 +31°C° 0 mm 3 m/S 746 mmHg 48%
11:00 +34°C° 0 mm 3 m/S 746 mmHg 41%
12:00 +34°C° 0 mm 3 m/S 746 mmHg 38%
13:00 +35°C° 0 mm 3 m/S 746 mmHg 36%
14:00 +35°C° 0 mm 3 m/S 746 mmHg 33%
15:00 +35°C° 0 mm 3 m/S 746 mmHg 37%
16:00 +34°C° 0 mm 3 m/S 746 mmHg 40%
17:00 +34°C° 0 mm 3 m/S 746 mmHg 44%
18:00 +31°C° 0 mm 2 m/S 746 mmHg 55%
19:00 +28°C° 0 mm 2 m/S 745 mmHg 65%
20:00 +26°C° 0 mm 2 m/S 745 mmHg 76%
21:00 +25°C° 0 mm 2 m/S 745 mmHg 77%
22:00 +24°C° 0 mm 2 m/S 746 mmHg 79%
23:00 +23°C° 0 mm 1 m/S 746 mmHg 80%

24 Juni, Donnerstag

Zeit Temperatur Niederschläge Wind Luftdruck Luftfeuchtigkeit
00:00 +23°C° 0 mm 1 m/S 746 mmHg 82%
01:00 +21°C° 0 mm 2 m/S 746 mmHg 83%
02:00 +21°C° 0 mm 2 m/S 746 mmHg 84%
03:00 +23°C° 0 mm 1 m/S 746 mmHg 84%
04:00 +23°C° 0 mm 1 m/S 746 mmHg 83%
05:00 +24°C° 0 mm 1 m/S 746 mmHg 82%
06:00 +26°C° 0 mm 1 m/S 746 mmHg 74%
07:00 +28°C° 0 mm 2 m/S 746 mmHg 65%
08:00 +30°C° 0 mm 2 m/S 746 mmHg 57%
09:00 +31°C° 0 mm 2 m/S 746 mmHg 52%
10:00 +32°C° 0 mm 2 m/S 746 mmHg 47%
11:00 +34°C° 0 mm 2 m/S 745 mmHg 42%
12:00 +35°C° 0 mm 2 m/S 745 mmHg 39%
13:00 +35°C° 0 mm 2 m/S 745 mmHg 37%
14:00 +36°C° 0 mm 3 m/S 745 mmHg 34%
15:00 +35°C° 0 mm 3 m/S 744 mmHg 38%
16:00 +35°C° 0 mm 3 m/S 744 mmHg 42%
17:00 +34°C° 0 mm 3 m/S 744 mmHg 45%
18:00 +31°C° 0 mm 3 m/S 744 mmHg 54%
19:00 +28°C° 0 mm 3 m/S 744 mmHg 63%
20:00 +26°C° 0 mm 3 m/S 744 mmHg 72%
21:00 +24°C° 0.1 mm 2 m/S 744 mmHg 80%
22:00 +21°C° 0.1 mm 2 m/S 744 mmHg 87%
23:00 +20°C° 0.1 mm 1 m/S 744 mmHg 94%

25 Juni, Freitag

Zeit Temperatur Niederschläge Wind Luftdruck Luftfeuchtigkeit
00:00 +20°C° 0 mm 1 m/S 744 mmHg 93%
01:00 +20°C° 0 mm 1 m/S 744 mmHg 93%
02:00 +20°C° 0 mm 1 m/S 744 mmHg 92%
03:00 +20°C° 0 mm 1 m/S 744 mmHg 90%
04:00 +21°C° 0 mm 1 m/S 744 mmHg 88%
05:00 +20°C° 0 mm 0 m/S 744 mmHg 86%
06:00 +22°C° 0 mm 0 m/S 744 mmHg 79%
07:00 +26°C° 0 mm 1 m/S 744 mmHg 72%
08:00 +28°C° 0 mm 1 m/S 744 mmHg 65%
09:00 +29°C° 0 mm 1 m/S 744 mmHg 58%
10:00 +31°C° 0 mm 1 m/S 744 mmHg 51%
11:00 +32°C° 0 mm 2 m/S 743 mmHg 45%
12:00 +32°C° 0 mm 2 m/S 743 mmHg 44%
13:00 +34°C° 0 mm 2 m/S 743 mmHg 43%
14:00 +34°C° 0 mm 2 m/S 743 mmHg 41%
15:00 +30°C° 0.5 mm 3 m/S 742 mmHg 52%
16:00 +28°C° 0.5 mm 4 m/S 742 mmHg 63%
17:00 +26°C° 0.5 mm 4 m/S 742 mmHg 74%
18:00 +24°C° 0.7 mm 3 m/S 742 mmHg 80%
19:00 +23°C° 0.7 mm 2 m/S 741 mmHg 86%
20:00 +21°C° 0.7 mm 1 m/S 741 mmHg 93%
21:00 +21°C° 0.3 mm 1 m/S 741 mmHg 94%
22:00 +20°C° 0.3 mm 1 m/S 741 mmHg 95%
23:00 +20°C° 0.3 mm 1 m/S 741 mmHg 96%

26 Juni, Samstag

Zeit Temperatur Niederschläge Wind Luftdruck Luftfeuchtigkeit
00:00 +20°C° 0 mm 1 m/S 741 mmHg 95%
01:00 +20°C° 0 mm 1 m/S 741 mmHg 94%
02:00 +20°C° 0 mm 1 m/S 741 mmHg 94%
03:00 +20°C° 0 mm 1 m/S 740 mmHg 93%
04:00 +21°C° 0 mm 1 m/S 740 mmHg 92%
05:00 +21°C° 0 mm 1 m/S 740 mmHg 91%
06:00 +23°C° 0 mm 1 m/S 740 mmHg 83%
07:00 +25°C° 0 mm 2 m/S 740 mmHg 75%
08:00 +27°C° 0 mm 2 m/S 740 mmHg 68%
09:00 +29°C° 0 mm 2 m/S 740 mmHg 60%
10:00 +30°C° 0 mm 2 m/S 740 mmHg 53%
11:00 +32°C° 0 mm 2 m/S 740 mmHg 45%
12:00 +32°C° 0 mm 2 m/S 740 mmHg 43%
13:00 +34°C° 0 mm 3 m/S 739 mmHg 41%
14:00 +34°C° 0 mm 3 m/S 739 mmHg 38%
15:00 +33°C° 0 mm 3 m/S 739 mmHg 46%
16:00 +30°C° 0 mm 3 m/S 738 mmHg 54%
17:00 +29°C° 0 mm 2 m/S 738 mmHg 61%
18:00 +28°C° 0.1 mm 2 m/S 737 mmHg 68%
19:00 +26°C° 0.1 mm 2 m/S 737 mmHg 74%
20:00 +25°C° 0.1 mm 2 m/S 737 mmHg 80%
21:00 +24°C° 0.8 mm 2 m/S 737 mmHg 85%
22:00 +22°C° 0.8 mm 1 m/S 738 mmHg 90%
23:00 +21°C° 0.8 mm 1 m/S 738 mmHg 95%
Mehr zeigen

Wir brauchen deine Erlaubnis

Meteoprog und unser Service Anbieter werden persönliche Daten aufbewahren, so wie Cookies, Geräte Bezeichnung oder ähnliche Technologien von deinem Gerät und Prozess, so wie Persönliche Daten Inhalte und Werbungen, genauso wie social Media und den Verkehr zu analysieren.

  • Aufbewahrung und/oder Zugang zu deiner Geräte Informationen.

    Cookies, Geräte Bezeichnung oder andere Informationen, können aufbewahrt oder Zugang zu deinem Gerät erhalten, für den Grund, der oben angegeben wird.

  • Personalisierte Werbung und Inhalte, Messungen, Einblick in das Publikum und Produkt Entwicklung.

    Werbungen und Inhalte können personalisiert werden, basierend auf ein Profil. Mehr Daten können besser personalisierte Werbungen und Inhalte hinzufügen. Werbung und Inhalte können gezeigt und gemessen werden. Einblicke über das Publikum, welche die Werbung gesehen haben und den Inhalt, können abgeleitet werden. So wie Daten können genutzt werden, um es zu verbessern oder die Benutzer Erfahrung zu verbessern das System und die Software.

Wenn du “Ich stimme zu” klickst, erlaubst du uns, die Cookies zu benutzen die Geräte Bezeichnung, den Web oder ähnliche Technologien zu benutzen. Deine Settings, können in deinem Gerät bei deinem Browser geändert werden.

Für den bestimmten Zweck, berechtigten Interessen beruhen darauf, mehr als auf den Inhalt. Du kannst mehr darüber in unseren Privaten und Cookie Politik lesen.